Location: Estes Par
(40.3770°N, 105.5210°W)
Time: 08:29:24
(UTC-06:00)

Tiangong 2 - Pass Details

Date: 11 October 2017
Orbit: 388 x 392 km, 42.8° (Epoch: 20 October)

Event Time Altitude Azimuth Distance (km) Brightness Sun altitude
Exits shadow 05:43:30 54° 257° (WSW) 476 1.1 -17.1°
Maximum altitude 05:44:08 87° 345° (NNW) 392 1.0 -17.0°
Drops below altitude 10° 05:47:20 10° 73° (ENE) 1,417 5.2 -16.3°
Sets 05:49:25 0° 74° (ENE) 2,274 6.6 -15.9°
